Date String (YYYY-MM-DD hh:mm:ss) UTC,Instrument flags,absolute air pressure of the measurement (hPa),sample flow rate (lpm),inlet stack bypass flow (lpm),air temperature of the measurement (°C),ambient temperature measured by the external sensor (°C),aerosol sample conditioner tube jacket temperature (°C),OPC LED temperature (°C),internal box temperature (°C),relative humidity of the measurement (%),span deviation,mass concentration of particles derived from Lorenz-Mie calculation of OPC scattering (μg/m³),mass concentration of particles derived from Lorenz-Mie calculation of OPC scattering (μg/m³),mass concentration of particles derived from Lorenz-Mie calculation of OPC scattering (μg/m³)
DateTimeUTC,F1_M11,P_M11,Q1_M11,Q2_M11,T1_M11,T2_M11,T3_M11,T4_M11,T5_M11,U1_M11,ZSPAN_M11,X0_M11,X2_M11,X1_M11
2024-04-23 09:00:00,SystemResetWarning,0827.8,5.00,000.00,026.1,025.2,000.0,034.7,027.9,012.7,0000.0,0012.60,0003.44,0001.69
2024-04-23 09:01:00,SystemResetWarning,0828.0,5.00,000.00,026.1,025.2,000.0,034.7,027.9,012.3,0000.0,0012.25,0003.41,0001.68
2024-04-23 09:02:00,SystemResetWarning,0828.1,5.00,000.00,026.1,025.2,000.0,034.7,027.9,012.3,0000.0,0012.17,0003.38,0001.68
2024-04-23 09:03:00,SystemResetWarning,0827.9,4.99,000.00,026.1,025.2,000.0,034.7,027.9,012.1,0000.0,0011.56,0003.31,0001.66
2024-04-23 09:04:00,SystemResetWarning,0828.0,5.00,000.00,026.1,025.2,000.0,034.7,027.9,011.8,0000.0,0010.68,0003.24,0001.64
2024-04-23 09:05:00,SystemResetWarning,0828.1,5.00,000.00,026.0,025.2,000.0,034.7,027.9,011.9,0000.0,0009.93,0003.22,0001.64
2024-04-23 09:06:00,SystemResetWarning,0828.2,5.01,000.00,026.0,025.1,000.0,034.7,027.9,012.0,0000.0,0009.10,0003.23,0001.63
2024-04-23 09:07:00,SystemResetWarning,0828.2,5.00,000.00,026.0,025.1,000.0,034.7,027.9,011.9,0000.0,0008.64,0003.25,0001.63
2024-04-23 09:08:00,SystemResetWarning,0828.2,5.01,000.00,026.0,025.1,000.0,034.7,027.9,011.6,0000.0,0008.43,0003.24,0001.64
2024-04-23 09:09:00,SystemResetWarning,0828.3,4.99,000.00,026.0,025.1,000.0,034.7,027.9,011.7,0000.0,0008.26,0003.23,0001.64
2024-04-23 09:10:00,SystemResetWarning,0828.4,5.00,000.00,026.0,025.1,000.0,034.7,027.8,011.9,0000.0,0007.90,0003.19,0001.63
2024-04-23 09:11:00,SystemResetWarning,0828.3,4.99,000.00,026.0,025.1,000.0,034.7,027.8,011.9,0000.0,0007.87,0003.21,0001.64
2024-04-23 09:12:00,SystemResetWarning,0828.3,4.99,000.00,026.0,025.1,000.0,034.7,027.9,012.0,0000.0,0008.03,0003.28,0001.65
2024-04-23 09:13:00,SystemResetWarning,0828.3,5.02,000.00,026.0,025.1,000.0,034.6,027.9,011.9,0000.0,0008.14,0003.30,0001.65
2024-04-23 09:14:00,SystemResetWarning,0828.3,5.00,000.00,026.0,025.1,000.0,034.6,027.8,011.8,0000.0,0008.50,0003.38,0001.65
2024-04-23 09:15:00,SystemResetWarning,0828.3,4.99,000.00,026.0,025.1,000.0,034.6,027.9,011.8,0000.0,0008.72,0003.43,0001.67
2024-04-23 09:16:00,SystemResetWarning,0828.4,4.99,000.00,026.0,025.1,000.0,034.6,027.9,011.8,0000.0,0009.55,0003.48,0001.66
2024-04-23 09:17:00,SystemResetWarning,0828.3,5.01,000.00,026.0,025.1,000.0,034.6,027.8,011.9,0000.0,0010.35,0003.47,0001.66
2024-04-23 09:18:00,SystemResetWarning,0828.4,5.01,000.00,026.0,025.1,000.0,034.6,027.8,011.8,0000.0,0010.27,0003.44,0001.66
2024-04-23 09:19:00,SystemResetWarning,0828.4,4.99,000.00,026.0,025.1,000.0,034.6,027.8,011.6,0000.0,0010.18,0003.45,0001.66
2024-04-23 09:20:00,SystemResetWarning,0828.4,5.00,000.00,026.0,025.1,000.0,034.6,027.8,011.6,0000.0,0010.55,0003.45,0001.64
2024-04-23 09:21:00,SystemResetWarning,0828.4,5.01,000.00,026.0,025.0,000.0,034.6,027.8,011.7,0000.0,0010.98,0003.41,0001.63
2024-04-23 09:22:00,SystemResetWarning,0828.5,5.00,000.00,026.0,025.0,000.0,034.6,027.8,011.8,0000.0,0011.15,0003.39,0001.63
2024-04-23 09:23:00,SystemResetWarning,0828.6,4.98,000.00,026.0,025.1,000.0,034.6,027.8,011.9,0000.0,0011.23,0003.39,0001.62
2024-04-23 09:24:00,SystemResetWarning,0828.5,5.00,000.00,025.9,025.1,000.0,034.6,027.8,011.8,0000.0,0011.80,0003.42,0001.63
2024-04-23 09:25:00,SystemResetWarning,0828.5,5.01,000.00,025.9,025.0,000.0,034.6,027.8,011.9,0000.0,0011.98,0003.37,0001.64
2024-04-23 09:26:00,SystemResetWarning,0828.6,5.00,000.00,025.9,025.0,000.0,034.6,027.8,011.7,0000.0,0012.23,0003.38,0001.63
2024-04-23 09:27:00,SystemResetWarning,0828.6,5.00,000.00,025.9,025.0,000.0,034.6,027.8,011.8,0000.0,0011.50,0003.30,0001.63
2024-04-23 09:28:00,SystemResetWarning,0828.6,5.00,000.00,025.9,025.0,000.0,034.6,027.8,011.9,0000.0,0010.67,0003.29,0001.63
2024-04-23 09:29:00,SystemResetWarning,0828.6,5.00,000.00,025.9,025.0,000.0,034.6,027.8,012.0,0000.0,0011.07,0003.31,0001.62
2024-04-23 09:30:00,SystemResetWarning,0828.6,4.99,000.00,025.9,025.0,000.0,034.6,027.8,012.0,0000.0,0011.70,0003.29,0001.62
2024-04-23 09:31:00,SystemResetWarning,0828.7,4.99,000.00,025.9,025.0,000.0,034.6,027.8,012.0,0000.0,0012.18,0003.27,0001.62
2024-04-23 09:32:00,SystemResetWarning,0828.6,5.00,000.00,025.9,025.0,000.0,034.6,027.8,012.1,0000.0,0012.43,0003.27,0001.63
2024-04-23 09:33:00,SystemResetWarning,0828.7,5.00,000.00,025.9,025.0,000.0,034.5,027.8,012.2,0000.0,0012.38,0003.27,0001.63
2024-04-23 09:34:00,SystemResetWarning,0828.6,5.00,000.00,025.9,025.0,000.0,034.5,027.8,012.2,0000.0,0012.49,0003.27,0001.64
2024-04-23 09:35:00,SystemResetWarning,0828.7,5.00,000.00,025.9,025.0,000.0,034.5,027.8,012.1,0000.0,0012.03,0003.22,0001.62
2024-04-23 09:36:00,SystemResetWarning,0828.7,5.00,000.00,025.9,025.1,000.0,034.5,027.8,012.2,0000.0,0013.21,0003.23,0001.63
2024-04-23 09:37:00,SystemResetWarning,0828.8,5.00,000.00,025.9,025.1,000.0,034.5,027.8,012.1,0000.0,0013.37,0003.22,0001.62
2024-04-23 09:38:00,SystemResetWarning,0828.9,5.00,000.00,025.9,025.1,000.0,034.5,027.8,012.2,0000.0,0013.59,0003.23,0001.63
2024-04-23 09:39:00,SystemResetWarning,0829.0,5.00,000.00,025.9,025.1,000.0,034.5,027.8,012.2,0000.0,0013.62,0003.25,0001.64
2024-04-23 09:40:00,SystemResetWarning,0828.9,5.00,000.00,025.9,025.1,000.0,034.5,027.8,012.2,0000.0,0013.17,0003.23,0001.64
2024-04-23 09:41:00,SystemResetWarning,0829.0,5.00,000.00,025.9,025.1,000.0,034.5,027.8,012.2,0000.0,0012.42,0003.21,0001.64
2024-04-23 09:42:00,SystemResetWarning,0829.0,4.99,000.00,025.9,025.1,000.0,034.5,027.8,012.2,0000.0,0012.31,0003.20,0001.63
2024-04-23 09:43:00,SystemResetWarning,0829.0,5.01,000.00,025.9,025.1,000.0,034.5,027.8,012.2,0000.0,0011.45,0003.23,0001.63
2024-04-23 09:44:00,SystemResetWarning,0829.0,5.00,000.00,025.9,025.1,000.0,034.5,027.8,012.3,0000.0,0011.25,0003.20,0001.62
2024-04-23 09:45:00,SystemResetWarning,0829.1,5.00,000.00,025.9,025.1,000.0,034.5,027.8,012.3,0000.0,0010.95,0003.16,0001.61
2024-04-23 09:46:00,SystemResetWarning,0829.1,5.00,000.00,025.9,025.1,000.0,034.5,027.8,012.3,0000.0,0010.98,0003.16,0001.62
2024-04-23 09:47:00,SystemResetWarning,0829.1,5.00,000.00,025.9,025.1,000.0,034.5,027.8,012.4,0000.0,0009.65,0003.17,0001.63
2024-04-23 09:48:00,SystemResetWarning,0829.2,5.00,000.00,025.9,025.1,000.0,034.5,027.8,012.4,0000.0,0009.04,0003.19,0001.64
2024-04-23 09:49:00,SystemResetWarning,0829.2,5.00,000.00,025.9,025.1,000.0,034.5,027.8,012.3,0000.0,0009.30,0003.18,0001.63
2024-04-23 09:50:00,SystemResetWarning,0829.3,5.00,000.00,025.9,025.1,000.0,034.5,027.8,012.5,0000.0,0009.24,0003.19,0001.63
2024-04-23 09:51:00,SystemResetWarning,0829.4,5.00,000.00,025.9,025.1,000.0,034.5,027.8,012.5,0000.0,0009.54,0003.16,0001.64
2024-04-23 09:52:00,SystemResetWarning,0829.3,5.00,000.00,025.9,025.1,000.0,034.5,027.8,012.4,0000.0,0010.18,0003.17,0001.65
2024-04-23 09:53:00,SystemResetWarning,0829.3,4.99,000.00,025.9,025.1,000.0,034.5,027.8,012.5,0000.0,0009.81,0003.20,0001.66
2024-04-23 09:54:00,SystemResetWarning,0829.4,4.99,000.00,025.9,025.1,000.0,034.5,027.8,012.5,0000.0,0009.34,0003.19,0001.66
2024-04-23 09:55:00,SystemResetWarning,0829.3,4.99,000.00,025.9,025.1,000.0,034.5,027.8,012.7,0000.0,0009.44,0003.20,0001.65
2024-04-23 09:56:00,SystemResetWarning,0829.3,5.01,000.00,025.9,025.1,000.0,034.5,027.7,012.6,0000.0,0009.41,0003.20,0001.66
2024-04-23 09:57:00,SystemResetWarning,0829.4,5.01,000.00,025.9,025.1,000.0,034.5,027.7,012.8,0000.0,0010.90,0003.21,0001.66
2024-04-23 09:58:00,SystemResetWarning,0829.5,5.01,000.00,025.9,025.1,000.0,034.5,027.7,012.8,0000.0,0011.72,0003.22,0001.67
2024-04-23 09:59:00,SystemResetWarning,0829.4,4.99,000.00,025.9,025.1,000.0,034.5,027.7,012.6,0000.0,0011.29,0003.18,0001.66
